Reading, PA

12:53 PM EST on December 16, 2017 (GMT -0500)
Reading Regional-Spaatz

Weather History for KRDG - February, 2012

Change the Weather History Date:

Thursday, February 16, 2012

  Actual Average Record
Temperature  
Mean Temperature 35 °F 32 °F  
Max Temperature 42 °F 41 °F 73 °F (1954)
Min Temperature 28 °F 23 °F -1 °F (2015)
Degree Days  
Heating Degree Days 30 33  
Month to date heating degree days 456 546  
Since 1 July heating degree days 3014 3671  
Cooling Degree Days 0 0  
Month to date cooling degree days 0 0  
Year to date cooling degree days 0 0  
Moisture  
Dew Point 35 °F    
Average Humidity 88    
Maximum Humidity 93    
Minimum Humidity 82    
Precipitation  
Precipitation 0.15 in 0.09 in 1.25 in (1885)
Month to date precipitation 0.31 1.39  
Year to date precipitation 2.69 4.44  
Sea Level Pressure  
Sea Level Pressure 30.15 in    
Wind  
Wind Speed 2 mph (SSE)    
Max Wind Speed 10 mph    
Max Gust Speed 15 mph    
Visibility 5 miles    
Events Rain , Snow    
T = Trace of Precipitation, MM = Missing Value Source: NWS Daily Summary

Daily Weather History Graph

Daily Weather History Graph

Search for Another Location

Airport or City:

Trip Planner

Search our weather history database for the weather conditions in past years. The results will help you decide how hot, cold, wet, or windy it might be!

Date:

Astronomy

Feb. 16, 2012 Rise Set
Actual Time 6:56 AM EST 5:39 PM EST
Civil Twilight 6:28 AM EST 6:07 PM EST
Nautical Twilight 5:56 AM EST 6:39 PM EST
Astronomical Twilight 5:25 AM EST 7:11 PM EST
Moon 2:50 AM EST 12:28 PM EST
Length of Visible Light 11h 38m
Length of Day
10h 43m
Waning Crescent, 28% of the Moon is Illuminated
Feb 16
Waning Crescent
Feb 21
New
Feb 29
First Quarter
Mar 8
Full
Mar 14
Last Quarter

Hourly Weather History & Observations

Time (EST) Temp. Windchill Dew Point Humidity Pressure Visibility Wind Dir Wind Speed Gust Speed Precip Events Conditions
12:54 AM 28.9 °F - 25.0 °F 85% 30.32 in 10.0 mi Calm Calm - N/A   Clear
1:54 AM 28.9 °F - 25.0 °F 85% 30.30 in 9.0 mi Calm Calm - N/A   Clear
2:54 AM 28.9 °F - 26.1 °F 89% 30.29 in 7.0 mi Calm Calm - N/A   Mostly Cloudy
3:54 AM 28.9 °F 25.2 °F 26.1 °F 89% 30.29 in 7.0 mi NNW 3.5 mph - N/A   Overcast
4:54 AM 30.9 °F - 27.0 °F 85% 30.29 in 8.0 mi Calm Calm - N/A   Overcast
5:54 AM 32.0 °F - 28.4 °F 87% 30.27 in 8.0 mi Calm Calm - N/A   Overcast
6:54 AM 32.0 °F - 28.0 °F 85% 30.28 in 8.0 mi Calm Calm - N/A   Overcast
7:54 AM 33.1 °F - 28.9 °F 85% 30.29 in 6.0 mi Calm Calm - 0.00 in   Overcast
8:54 AM 34.0 °F - 30.0 °F 85% 30.28 in 6.0 mi Calm Calm - 0.00 in   Overcast
9:54 AM 35.1 °F - 30.9 °F 85% 30.29 in 3.0 mi Calm Calm - 0.00 in Snow Light Snow
10:54 AM 36.0 °F 33.3 °F 33.1 °F 89% 30.25 in 3.0 mi NNE 3.5 mph - 0.02 in Rain Light Rain
11:54 AM 37.4 °F - 35.6 °F 93% 30.20 in 3.0 mi Calm Calm - N/A Rain Light Rain
12:04 PM 37.4 °F - 35.6 °F 93% 30.19 in 2.5 mi Calm Calm - 0.01 in Rain Light Rain
12:13 PM 37.4 °F - 35.6 °F 93% 30.18 in 3.0 mi Calm Calm - 0.01 in Rain Light Rain
12:54 PM 39.0 °F 34.0 °F 35.1 °F 86% 30.17 in 4.0 mi SSE 6.9 mph - 0.01 in Rain Light Rain
1:54 PM 39.9 °F 34.5 °F 36.0 °F 86% 30.14 in 3.0 mi SSE 8.1 mph - 0.02 in Rain Light Rain
2:27 PM 39.2 °F 35.0 °F 37.4 °F 93% 30.10 in 3.0 mi SE 5.8 mph - 0.02 in Rain Light Rain
2:35 PM 39.2 °F 34.2 °F 37.4 °F 93% 30.10 in 2.5 mi SSE 6.9 mph - 0.02 in Rain Light Rain
2:47 PM 39.2 °F 35.9 °F 37.4 °F 93% 30.10 in 3.0 mi SSE 4.6 mph - 0.03 in Rain Light Rain
2:54 PM 39.9 °F 36.7 °F 37.9 °F 93% 30.12 in 2.0 mi SSE 4.6 mph - 0.03 in Rain Light Rain
3:54 PM 41.0 °F 37.1 °F 37.9 °F 89% 30.09 in 2.0 mi SE 5.8 mph - 0.05 in Rain Light Rain
4:54 PM 42.1 °F 38.4 °F 37.9 °F 85% 30.09 in 5.0 mi South 5.8 mph - 0.00 in Rain Light Rain
5:52 PM 41.0 °F - 37.4 °F 87% 30.05 in 2.5 mi Calm Calm - 0.00 in   Overcast
5:54 PM 41.0 °F - 39.0 °F 93% 30.08 in 4.0 mi Calm Calm - 0.00 in   Overcast
6:54 PM 41.0 °F - 37.4 °F 87% 30.06 in 5.0 mi Calm Calm - N/A   Overcast
7:19 PM 41.0 °F - 39.2 °F 93% 30.06 in 5.0 mi Calm Calm - 0.00 in Rain Light Rain
7:54 PM 41.0 °F 37.1 °F 39.0 °F 93% 30.07 in 5.0 mi SE 5.8 mph - 0.00 in   Overcast
8:08 PM 42.8 °F 40.1 °F 39.2 °F 87% 30.04 in 4.0 mi SSE 4.6 mph - N/A   Overcast
8:54 PM 42.1 °F 40.2 °F 39.0 °F 89% 30.06 in 4.0 mi SSE 3.5 mph - N/A   Overcast
9:16 PM 42.8 °F - 39.2 °F 87% 30.04 in 5.0 mi Calm Calm - N/A   Overcast
9:50 PM 42.8 °F - 39.2 °F 87% 30.02 in 5.0 mi Calm Calm - N/A   Overcast
9:54 PM 42.1 °F - 39.9 °F 92% 30.04 in 5.0 mi Calm Calm - N/A   Overcast
10:11 PM 41.0 °F 39.0 °F 39.2 °F 93% 30.02 in 4.0 mi SSW 3.5 mph - N/A   Overcast
10:42 PM 41.0 °F - 39.2 °F 93% 30.01 in 3.0 mi Calm Calm - N/A   Overcast
10:54 PM 41.0 °F - 39.0 °F 93% 30.03 in 3.0 mi Calm Calm - N/A   Overcast
11:54 PM 42.1 °F - 39.9 °F 92% 30.03 in 3.0 mi Calm Calm - N/A   Overcast